Change the Weather History Date:

Monday, November 17, 2014

  Actual Average Record
Temperature  
Mean Temperature 36 °F -  
Max Temperature 41 °F - 66 °F (2006)
Min Temperature 30 °F - 11 °F (1972)
Degree Days  
Heating Degree Days 29    
Month to date heating degree days 450  
Since 1 July heating degree days 1145  
Cooling Degree Days 0    
Month to date cooling degree days 0  
Year to date cooling degree days 280  
Moisture  
Dew Point 31 °F    
Average Humidity 76    
Maximum Humidity 93    
Minimum Humidity 59    
Precipitation  
Precipitation 0.00 in - 1.27 in (2002)
Month to date precipitation 0.00  
Year to date precipitation 23.02  
Sea Level Pressure  
Sea Level Pressure 29.70 in    
Wind  
Wind Speed 9 mph (SSE)    
Max Wind Speed 15 mph    
Max Gust Speed 22 mph    
Visibility 9 miles    
Events      
T = Trace of Precipitation, MM = Missing Value Source: NWS Daily Summary

Daily Weather History Graph

Daily Weather History Graph

Search for Another Location

Airport or City:

Trip Planner

Search our weather history database for the weather conditions in past years. The results will help you decide how hot, cold, wet, or windy it might be!

Date:

Astronomy

Nov. 17, 2014 Rise Set
Actual Time 6:48 AM EST 4:25 PM EST
Civil Twilight 6:17 AM EST 4:56 PM EST
Nautical Twilight 5:42 AM EST 5:30 PM EST
Astronomical Twilight 5:08 AM EST 6:04 PM EST
Moon 1:38 AM EST (11/17) 1:55 PM EST (11/17)
Length of Visible Light 10h 39m
Length of Day
9h 36m
Waning Crescent, 23% of the Moon is Illuminated
Nov 17
Waning Crescent
Nov 22
New
Nov 29
First Quarter
Dec 6
Full
Dec 14
Last Quarter

Hourly Weather History & Observations

Time (EST) Temp. Windchill Dew Point Humidity Pressure Visibility Wind Dir Wind Speed Gust Speed Precip Events Conditions
12:15 AM 33.8 °F 29.6 °F 24.8 °F 70% 30.02 in 10.0 mi ENE 4.6 mph - N/A   Overcast
12:35 AM 33.8 °F 27.7 °F 24.8 °F 70% 30.02 in 10.0 mi SE 6.9 mph - N/A   Overcast
12:55 AM 35.6 °F 31.7 °F 24.8 °F 65% 30.00 in 10.0 mi SE 4.6 mph - N/A   Overcast
1:15 AM 33.8 °F 29.6 °F 24.8 °F 70% 30.01 in 10.0 mi SSE 4.6 mph - N/A   Overcast
1:35 AM 33.8 °F 28.6 °F 24.8 °F 70% 30.00 in 10.0 mi ESE 5.8 mph - N/A   Scattered Clouds
1:55 AM 33.8 °F 28.6 °F 24.8 °F 70% 30.01 in 10.0 mi SE 5.8 mph - N/A   Mostly Cloudy
2:15 AM 35.6 °F 30.7 °F 23.0 °F 60% 30.00 in 10.0 mi SSE 5.8 mph - N/A   Overcast
2:35 AM 35.6 °F - 23.0 °F 60% 30.01 in 10.0 mi Calm Calm - N/A   Overcast
2:55 AM 35.6 °F 29.9 °F 24.8 °F 65% 30.01 in 10.0 mi SE 6.9 mph - N/A   Overcast
3:15 AM 35.6 °F 30.7 °F 24.8 °F 65% 30.00 in 10.0 mi SE 5.8 mph - N/A   Overcast
3:35 AM 35.6 °F 31.7 °F 24.8 °F 65% 29.99 in 10.0 mi SE 4.6 mph - N/A   Overcast
3:55 AM 35.6 °F 32.8 °F 24.8 °F 65% 29.99 in 10.0 mi SSW 3.5 mph - N/A   Overcast
4:15 AM 33.8 °F 30.8 °F 26.6 °F 75% 30.00 in 5.0 mi SSE 3.5 mph - N/A   Overcast
4:35 AM 32.0 °F 28.7 °F 28.4 °F 87% 29.98 in 2.0 mi SSE 3.5 mph - N/A   Overcast
4:55 AM 30.2 °F 26.7 °F 28.4 °F 93% 29.97 in 1.8 mi SE 3.5 mph - N/A   Overcast
5:15 AM 30.2 °F 26.7 °F 28.4 °F 93% 29.95 in 2.5 mi SSE 3.5 mph - N/A   Mostly Cloudy
5:35 AM 30.2 °F 24.3 °F 28.4 °F 93% 29.92 in 3.0 mi ESE 5.8 mph - N/A   Overcast
5:55 AM 32.0 °F - 28.4 °F 87% 29.90 in 3.0 mi Calm Calm - N/A   Overcast
6:15 AM 32.0 °F 26.4 °F 28.4 °F 87% 29.90 in 4.0 mi SSW 5.8 mph - N/A   Overcast
6:35 AM 32.0 °F 26.4 °F 30.2 °F 93% 29.90 in 4.0 mi South 5.8 mph - N/A   Overcast
6:55 AM 32.0 °F 23.0 °F 28.4 °F 87% 29.90 in 3.0 mi South 11.5 mph - N/A   Overcast
7:15 AM 32.0 °F 23.6 °F 28.4 °F 87% 29.90 in 6.0 mi South 10.4 mph - N/A   Overcast
7:35 AM 32.0 °F 24.2 °F 28.4 °F 87% 29.89 in 8.0 mi South 9.2 mph - N/A   Overcast
7:55 AM 32.0 °F 23.6 °F 28.4 °F 87% 29.88 in 10.0 mi SSE 10.4 mph 17.3 mph N/A   Overcast
8:15 AM 32.0 °F 23.6 °F 28.4 °F 87% 29.87 in 10.0 mi South 10.4 mph - N/A   Overcast
8:35 AM 33.8 °F 27.7 °F 28.4 °F 81% 29.86 in 10.0 mi SSE 6.9 mph - N/A   Overcast
8:55 AM 33.8 °F 23.9 °F 28.4 °F 81% 29.85 in 10.0 mi ESE 15.0 mph - N/A   Overcast
9:15 AM 33.8 °F 23.2 °F 30.2 °F 87% 29.82 in 10.0 mi ESE 17.3 mph 20.7 mph N/A   Overcast
9:35 AM 33.8 °F 23.5 °F 30.2 °F 87% 29.79 in 10.0 mi ESE 16.1 mph - N/A   Overcast
9:55 AM 33.8 °F 23.9 °F 30.2 °F 87% 29.78 in 10.0 mi ESE 15.0 mph 20.7 mph N/A   Overcast
10:15 AM 35.6 °F 28.0 °F 30.2 °F 81% 29.76 in 10.0 mi SSE 10.4 mph 19.6 mph N/A   Overcast
10:35 AM 35.6 °F 28.6 °F 32.0 °F 87% 29.75 in 10.0 mi SSE 9.2 mph 17.3 mph N/A   Overcast
10:55 AM 35.6 °F 27.1 °F 32.0 °F 87% 29.73 in 10.0 mi South 12.7 mph 16.1 mph N/A   Overcast
11:15 AM 35.6 °F 28.0 °F 32.0 °F 87% 29.72 in 10.0 mi SE 10.4 mph 16.1 mph N/A   Overcast
11:35 AM 35.6 °F 28.0 °F 32.0 °F 87% 29.70 in 10.0 mi SSE 10.4 mph - N/A   Overcast
11:55 AM 35.6 °F 26.6 °F 33.8 °F 93% 29.68 in 10.0 mi SE 13.8 mph - N/A   Overcast
12:15 PM 35.6 °F 28.6 °F 33.8 °F 93% 29.66 in 10.0 mi SSE 9.2 mph 20.7 mph N/A   Overcast
12:35 PM 35.6 °F 27.1 °F 32.0 °F 87% 29.65 in 10.0 mi SSE 12.7 mph 19.6 mph N/A   Overcast
12:55 PM 35.6 °F 27.5 °F 32.0 °F 87% 29.64 in 10.0 mi South 11.5 mph - N/A   Overcast
1:15 PM 35.6 °F 27.5 °F 32.0 °F 87% 29.62 in 10.0 mi South 11.5 mph 17.3 mph N/A   Overcast
1:35 PM 35.6 °F 28.0 °F 32.0 °F 87% 29.62 in 9.0 mi SSE 10.4 mph 21.9 mph N/A   Overcast
1:55 PM 35.6 °F 26.2 °F 32.0 °F 87% 29.59 in 8.0 mi South 15.0 mph - N/A   Overcast
2:15 PM 35.6 °F 27.1 °F 32.0 °F 87% 29.57 in 10.0 mi South 12.7 mph 23.0 mph N/A   Overcast
2:35 PM 35.6 °F 29.2 °F 33.8 °F 93% 29.54 in 10.0 mi SSW 8.1 mph - N/A   Overcast
2:55 PM 35.6 °F 28.0 °F 33.8 °F 93% 29.53 in 10.0 mi South 10.4 mph 18.4 mph N/A   Overcast
3:15 PM 35.6 °F 26.6 °F 32.0 °F 87% 29.51 in 10.0 mi SSE 13.8 mph 21.9 mph N/A   Overcast
3:35 PM 35.6 °F 29.2 °F 33.8 °F 93% 29.52 in 10.0 mi South 8.1 mph 21.9 mph N/A   Overcast
3:55 PM 37.4 °F 28.9 °F 33.8 °F 87% 29.50 in 8.0 mi SSE 13.8 mph 18.4 mph N/A   Overcast
4:15 PM 37.4 °F 29.3 °F 33.8 °F 87% 29.48 in 10.0 mi SSE 12.7 mph 18.4 mph N/A   Overcast
4:35 PM 37.4 °F 28.5 °F 33.8 °F 87% 29.47 in 9.0 mi SE 15.0 mph 21.9 mph N/A   Mostly Cloudy
4:55 PM 37.4 °F 30.3 °F 33.8 °F 87% 29.49 in 10.0 mi South 10.4 mph - N/A   Overcast
5:15 PM 37.4 °F 29.8 °F 33.8 °F 87% 29.48 in 10.0 mi SSE 11.5 mph - N/A   Overcast
5:35 PM 37.4 °F 28.9 °F 35.6 °F 93% 29.48 in 10.0 mi SE 13.8 mph 18.4 mph N/A   Overcast
5:55 PM 37.4 °F 29.3 °F 35.6 °F 93% 29.46 in 10.0 mi SSE 12.7 mph - N/A   Overcast
6:15 PM 37.4 °F 30.3 °F 35.6 °F 93% 29.45 in 10.0 mi SSE 10.4 mph - N/A   Overcast
6:35 PM 39.2 °F 32.5 °F 35.6 °F 87% 29.45 in 10.0 mi SSE 10.4 mph 18.4 mph N/A   Overcast
6:55 PM 37.4 °F 30.3 °F 35.6 °F 93% 29.46 in 10.0 mi SE 10.4 mph - N/A   Overcast
7:15 PM 37.4 °F 30.3 °F 35.6 °F 93% 29.45 in 10.0 mi ESE 10.4 mph - N/A   Overcast
7:35 PM 39.2 °F 35.0 °F 35.6 °F 87% 29.46 in 10.0 mi ESE 5.8 mph - N/A   Overcast
7:55 PM 37.4 °F - 35.6 °F 93% 29.46 in 10.0 mi Calm Calm - N/A   Overcast
8:15 PM 39.2 °F - 35.6 °F 87% 29.45 in 10.0 mi Calm Calm - N/A   Overcast
8:35 PM 39.2 °F - 37.4 °F 93% 29.45 in 10.0 mi Calm Calm - N/A   Overcast
8:55 PM 41.0 °F 37.1 °F 39.2 °F 93% 29.44 in 10.0 mi WSW 5.8 mph - N/A   Overcast
9:15 PM 41.0 °F 37.1 °F 37.4 °F 87% 29.44 in 10.0 mi West 5.8 mph - N/A   Overcast
9:35 PM 41.0 °F 39.0 °F 35.6 °F 81% 29.45 in 10.0 mi West 3.5 mph - N/A   Overcast
9:55 PM 41.0 °F 38.0 °F 35.6 °F 81% 29.46 in 10.0 mi West 4.6 mph - N/A   Overcast
10:15 PM 39.2 °F 32.0 °F 35.6 °F 87% 29.45 in 10.0 mi WSW 11.5 mph - N/A   Overcast
10:35 PM 39.2 °F 35.9 °F 33.8 °F 81% 29.46 in 10.0 mi SW 4.6 mph - N/A   Overcast
10:55 PM 39.2 °F 33.0 °F 33.8 °F 81% 29.47 in 10.0 mi WSW 9.2 mph - N/A   Overcast
11:15 PM 39.2 °F 31.2 °F 33.8 °F 81% 29.46 in 10.0 mi WSW 13.8 mph 18.4 mph N/A   Overcast
11:35 PM 37.4 °F 31.4 °F 33.8 °F 87% 29.47 in 10.0 mi WSW 8.1 mph - N/A   Overcast
11:55 PM 37.4 °F 32.8 °F 33.8 °F 87% 29.47 in 10.0 mi WSW 5.8 mph - N/A   Overcast